Regional Weather Roundup
Issued by NWS

Home | Current Version | Previous Version | Graphics & Text | Print | Product List | Glossary On
Versions: 1 2 3 4 5 6 7 8 9 10 11 12 13 14 15 16 17 18 19 20 21 22 23 24 25 26 27 28 29 30 31 32 33 34 35 36 37 38 39 40 41 42 43 44 45 46 47 48 49 50
000
ASUS43 KLOT 211304
RWRIL

ILLINOIS REGIONAL WEATHER ROUNDUP
NATIONAL WEATHER SERVICE CHICAGO/ROMEOVILLE IL
800 AM CDT FRI JUL 21 2017

NOTE: "FAIR" INDICATES FEW OR NO CLOUDS BELOW 12,000 FEET WITH NO
SIGNIFICANT WEATHER AND/OR OBSTRUCTIONS TO VISIBILITY.

* THESE STATIONS ARE NOT UNDER NWS QUALITY CONTROL. THEY ALSO MAY NOT
  REPORT WEATHER SUCH AS PRECIPITATION OR FOG.

ILZ001-002-007-009-015-016-024-211400-
NORTHWEST ILLINOIS

CITY           SKY/WX    TMP DP  RH WIND       PRES   REMARKS
MOLINE         CLOUDY    74  69  85 CALM      29.96S
STERLING*      CLOUDY    74  72  93 W3        29.99R
SAVANNA*       CLOUDY    73  71  91 SW6       29.99R
$$

ILZ003-004-008-010-011-017-018-211400-
NORTH CENTRAL ILLINOIS

CITY           SKY/WX    TMP DP  RH WIND       PRES   REMARKS
ROCKFORD       CLOUDY    77  73  87 SW6       29.99R FOG
FREEPORT*      CLOUDY    73  72  96 CALM      29.99F
ROCHELLE*      CLOUDY    73  72  97 CALM      30.00R
DE KALB*       CLOUDY    73  71  94 S5        30.00R
PERU*          CLOUDY    72  70  93 S7        29.99S
$$

ILZ005-006-012>014-019>023-211400-
NORTHEAST ILLINOIS

CITY           SKY/WX    TMP DP  RH WIND       PRES   REMARKS
CHICAGO-OHARE  CLOUDY    79  69  71 E3        29.98R HX  81
CHICAGO-MIDWAY CLOUDY    80  70  71 E7        29.96S HX  83
AURORA         CLOUDY    74  71  91 S6        29.99R
LANSING*       PTSUNNY   73  70  89 SE3       29.98S
JOLIET*        CLOUDY    75  75  99 CALM      29.98R FOG
WAUKEGAN       CLOUDY    73  72  96 CALM      29.97F
DUPAGE AIRPORT CLOUDY    75  71  87 CALM      29.97R
WHEELING       CLOUDY    76  72  87 E3        29.98S
MORRIS*        CLOUDY    73  72  97 SW5       29.98R FOG
ROMEOVILLE*    CLOUDY    74  71  92 S3        29.99R FOG
NORTHERLY ISL    N/A     75  71  87 CALM        N/A
$$

LMZ740>746-211400-
SOUTHERN LAKE MICHIGAN

STATION/POSITION SKY/WX   TEMP    WIND        PRES    VSBY  WAVE
                          AIR SEA DIR/SP/G                  HT/PER
                          (F)     (DEG/KT/KT) (MB)    (MI)  (FT/S)
SOUTHERN BUOY              71 70  290/  2/  4 1015.6          0
WILMETTE HARBOR            73 72   50/  4/  6   N/A           0
HARRISON CRIB              74     100/  7/  8   N/A
BURNHAM HARBOR             76                   N/A
CALUMET HARBOR             75      80/  5/  7 1014.6R
BURNS HARBOR               74      80/  5/  8 1015.6F
MICHIGAN CITY              72      40/  5/  6   N/A
MICHIGAN CITY 6N           74 74   90/  8/ 12   N/A           0
ST. JOSEPH                 73 74   90/  6/  8 1015.7F         0
$$

ILZ025>027-034>036-040-047-049-050-058-095>099-211400-
WEST-CENTRAL ILLINOIS

CITY           SKY/WX    TMP DP  RH WIND       PRES   REMARKS
QUINCY         SUNNY     82  77  84 SE6       29.99R HX  90
GALESBURG*     MOSUNNY   74  70  87 SE5       30.01R
MACOMB*        CLOUDY    78  73  85 SE7       30.02R HX  80
JACKSONVILLE*  MOSUNNY   81  76  84 E7        30.00R HX  86
PITTSFIELD*    SUNNY     82  76  79 N3        30.01R HX  90
$$

ILZ028>032-037-038-041>044-048-051>054-059>061-211400-
CENTRAL ILLINOIS

CITY           SKY/WX    TMP DP  RH WIND       PRES   REMARKS
PONTIAC        CLOUDY    75  74  98 N7        30.01R
BLOOMINGTON    CLOUDY    73  70  90 S8        30.01F
DECATUR        CLOUDY    79  71  76 SE10      30.01F HX  82
PEORIA         CLOUDY    77  72  84 CALM      30.00R
LACON*         CLOUDY    74  73  97 CALM      29.99R
LINCOLN*       CLOUDY    78  73  84 SE7       29.99F HX  81
SPRINGFIELD    PTSUNNY   82  76  81 E8        30.01R HX  89
TAYLORVILLE    MOSUNNY   81  74  80 NE5       30.01R HX  86
$$

ILZ033-039-045-046-055>057-062-063-211400-
EAST-CENTRAL ILLINOIS

CITY           SKY/WX    TMP DP  RH WIND       PRES   REMARKS
CHAMPAIGN      PTSUNNY   76  70  82 S7        30.01F
RANTOUL*       CLOUDY    75  72  89 S5        30.01R
MATTOON        MOSUNNY   81  74  79 SE7       30.01S HX  86
PARIS*         PTSUNNY   77  72  84 SE6       30.02F
$$

ILZ079-100>102-211400-
SOUTHWEST ILLINOIS

CITY           SKY/WX    TMP DP  RH WIND       PRES   REMARKS
ALTON          MOSUNNY   82  77  83 SW6       30.01S HX  91
BELLEVILLE     SUNNY     82  75  78 SW3       30.01R HX  88
CAHOKIA*       SUNNY     85  73  67 SW3       30.00R HX  91
SPARTA*        SUNNY     82  74  78 SW6       30.02R HX  88
$$

ILZ064>066-069>071-074>076-080>082-084>086-088>090-092>094-211400-
SOUTH-CENTRAL ILLINOIS

CITY           SKY/WX    TMP DP  RH WIND       PRES   REMARKS
CARBONDALE     SUNNY     82  79  90 SW6       30.01S HX  92
CAIRO*         SUNNY     81  77  89 SW3       30.03R HX  88
EFFINGHAM*     MOSUNNY   81  78  89 E5        30.03R HX  89
MARION         MOSUNNY   82  82 100 SW6       30.03R HX  97
MT. VERNON     MOSUNNY   82  77  84 SW5       30.01S HX  90
CENTRALIA*     MOSUNNY   83  77  82 CALM      30.01R HX  92
SALEM*         CLOUDY    84  76  77 SW5       30.01S HX  92
METROPOLIS*    MOSUNNY   82  78  87 SW3       30.04R HX  90
$$

ILZ067-068-072-073-078-083-087-091-211400-
SOUTHEAST ILLINOIS

CITY           SKY/WX    TMP DP  RH WIND       PRES   REMARKS
LAWRENCEVILLE  CLOUDY    80  76  87 SE5       30.03R HX  86
FLORA*         MOSUNNY   82  77  85 S3        30.01S HX  89
FAIRFIELD*     CLOUDY    81  77  88 CALM      30.01S HX  87
HARRISBURG*    SUNNY     79  77  94 CALM      30.02R HX  84
ROBINSON*      CLOUDY    81  75  81 E6        30.03S HX  86
CARMI*         MOSUNNY   79  77  94 CALM      30.01R FOG     HX  84
$$

ABBREVIATIONS USED IN REMARKS
   TC - TEMPERATURE IN CELSIUS
  WCI - WIND CHILL INDEX
   HX - HEAT INDEX
  VSB - VISIBILITY
$$





USA.gov is the U.S. government's official web portal to all federal, state and local government web resources and services.